TimePDT,TemperatureF,Dew PointF,Humidity,Sea Level PressureIn,VisibilityMPH,Wind Direction,Wind SpeedMPH,Gust SpeedMPH,PrecipitationIn,Events,Conditions,WindDirDegrees,DateUTC
12:53 AM,66.9,60.1,79,29.93,10.0,South,5.8,-,N/A,,Clear,170,2013-07-01 07:53:00
1:53 AM,66.0,59.0,78,29.93,10.0,South,5.8,-,N/A,,Clear,190,2013-07-01 08:53:00
2:53 AM,64.0,57.9,80,29.94,10.0,Calm,Calm,-,N/A,,Clear,0,2013-07-01 09:53:00
3:53 AM,64.0,57.9,80,29.94,10.0,Calm,Calm,-,N/A,,Clear,0,2013-07-01 10:53:00
4:53 AM,63.0,57.9,84,29.95,10.0,SSW,3.5,-,N/A,,Clear,200,2013-07-01 11:53:00
5:53 AM,64.0,57.9,80,29.96,10.0,Calm,Calm,-,N/A,,Clear,0,2013-07-01 12:53:00
6:53 AM,64.9,57.0,75,29.98,10.0,South,4.6,-,N/A,,Clear,190,2013-07-01 13:53:00
7:53 AM,66.0,57.9,75,29.98,10.0,SSE,4.6,-,N/A,,Clear,150,2013-07-01 14:53:00
8:53 AM,68.0,59.0,73,29.98,10.0,South,5.8,-,N/A,,Clear,180,2013-07-01 15:53:00
9:53 AM,72.0,61.0,68,29.96,10.0,Calm,Calm,-,N/A,,Clear,0,2013-07-01 16:53:00
10:53 AM,75.0,63.0,66,29.96,10.0,Variable,5.8,-,N/A,,Clear,0,2013-07-01 17:53:00
11:53 AM,75.9,63.0,64,29.95,10.0,Variable,4.6,-,N/A,,Clear,0,2013-07-01 18:53:00
12:53 PM,77.0,62.1,60,29.94,10.0,Variable,5.8,-,N/A,,Clear,0,2013-07-01 19:53:00
1:53 PM,80.1,64.0,58,29.95,10.0,Variable,5.8,-,N/A,,Clear,0,2013-07-01 20:53:00
2:53 PM,78.1,63.0,60,29.96,10.0,South,8.1,-,N/A,,Clear,170,2013-07-01 21:53:00
3:53 PM,75.9,61.0,60,29.96,10.0,South,11.5,17.3,N/A,,Clear,180,2013-07-01 22:53:00
4:53 PM,75.9,61.0,60,29.95,10.0,South,10.4,17.3,N/A,,Clear,170,2013-07-01 23:53:00
5:53 PM,80.1,59.0,48,29.94,10.0,South,15.0,24.2,N/A,,Clear,170,2013-07-02 00:53:00
6:53 PM,73.9,61.0,64,29.95,10.0,South,6.9,-,N/A,,Clear,170,2013-07-02 01:53:00
7:53 PM,72.0,59.0,64,29.94,10.0,South,12.7,20.7,N/A,,Clear,170,2013-07-02 02:53:00
8:53 PM,73.9,59.0,59,29.94,10.0,SSE,10.4,-,N/A,,Clear,160,2013-07-02 03:53:00
9:53 PM,73.9,55.9,53,29.96,10.0,South,11.5,20.7,N/A,,Clear,170,2013-07-02 04:53:00
10:53 PM,66.9,57.0,70,29.99,10.0,South,11.5,18.4,N/A,,Clear,180,2013-07-02 05:53:00
11:53 PM,64.9,55.9,73,30.01,10.0,South,10.4,19.6,N/A,,Clear,180,2013-07-02 06:53:00